Weather History for Coeur d'Alene, ID

Change the Weather History Date:

Monday, November 14, 2011

  Actual Average Record
Temperature  
Mean Temperature 37 °F -  
Max Temperature 44 °F 41 °F 62 °F (1999)
Min Temperature 28 °F 29 °F 14 °F (2014)
Degree Days  
Heating Degree Days 28    
Moisture  
Dew Point 24 °F    
Average Humidity 61    
Maximum Humidity 75    
Minimum Humidity 38    
Precipitation  
Precipitation 0.00 in - - ()
Sea Level Pressure  
Sea Level Pressure 29.71 in    
Wind  
Wind Speed 12 mph (WNW)    
Max Wind Speed 23 mph    
Max Gust Speed 31 mph    
Visibility 10 miles    
Events      
Averages and records for this station are not official NWS values.
T = Trace of Precipitation, MM = Missing Value Source: NWS Daily Summary

Daily Weather History Graph

Daily Weather History Graph

Search for Another Location

Airport:

Trip Planner

Search our weather history database for the weather conditions in past years. The results will help you decide how hot, cold, wet, or windy it might be!

Date:

Astronomy

Nov. 14, 2011 Rise Set
Actual Time 6:51 AM PST 4:11 PM PST
Civil Twilight 6:17 AM PST 4:45 PM PST
Nautical Twilight 5:40 AM PST 5:22 PM PST
Astronomical Twilight 5:03 AM PST 5:59 PM PST
Moon 7:17 PM PST (11/14) 10:19 AM PST (11/14)
Length of Visible Light 10h 27m
Length of Day
9h 20m
Waning Gibbous, 86% of the Moon is Illuminated
Nov 14
Waning Gibbous
Nov 18
Last Quarter
Nov 24
New
Dec 2
First Quarter
Dec 10
Full

Hourly Weather History & Observations

Time (PST) Temp. Windchill Dew Point Humidity Pressure Visibility Wind Dir Wind Speed Gust Speed Precip Events Conditions
12:15 AM 35.6 °F 27.5 °F 26.6 °F 70% 29.63 in 10.0 mi West 11.5 mph - N/A   Clear
12:35 AM 35.6 °F 27.1 °F 26.6 °F 70% 29.62 in 10.0 mi West 12.7 mph 17.3 mph N/A   Clear
12:55 AM 35.6 °F 28.0 °F 28.4 °F 75% 29.62 in 10.0 mi West 10.4 mph - N/A   Clear
1:15 AM 35.6 °F 28.0 °F 28.4 °F 75% 29.62 in 10.0 mi West 10.4 mph - N/A   Clear
1:35 AM 35.6 °F 28.0 °F 28.4 °F 75% 29.62 in 10.0 mi West 10.4 mph - N/A   Clear
1:55 AM 35.6 °F 26.6 °F 28.4 °F 75% 29.61 in 10.0 mi West 13.8 mph - N/A   Clear
2:15 AM 35.6 °F 25.9 °F 28.4 °F 75% 29.61 in 10.0 mi West 16.1 mph - N/A   Partly Cloudy
2:35 AM 35.6 °F 25.5 °F 28.4 °F 75% 29.61 in 10.0 mi West 17.3 mph - N/A   Scattered Clouds
2:55 AM 35.6 °F 25.5 °F 28.4 °F 75% 29.61 in 10.0 mi West 17.3 mph - N/A   Mostly Cloudy
3:15 AM 35.6 °F 26.6 °F 28.4 °F 75% 29.60 in 10.0 mi West 13.8 mph - N/A   Overcast
3:35 AM 37.4 °F 28.2 °F 30.2 °F 75% 29.60 in 10.0 mi West 16.1 mph 24.2 mph N/A   Overcast
4:15 AM 37.4 °F 28.5 °F 30.2 °F 75% 29.60 in 10.0 mi West 15.0 mph - N/A   Overcast
4:35 AM 37.4 °F 29.3 °F 28.4 °F 70% 29.60 in 10.0 mi West 12.7 mph 24.2 mph N/A   Overcast
4:55 AM 35.6 °F 25.9 °F 28.4 °F 75% 29.60 in 10.0 mi West 16.1 mph 24.2 mph N/A   Scattered Clouds
5:35 AM 37.4 °F 28.9 °F 28.4 °F 70% 29.61 in 10.0 mi West 13.8 mph 23.0 mph N/A   Mostly Cloudy
5:55 AM 37.4 °F 28.9 °F 28.4 °F 70% 29.61 in 10.0 mi West 13.8 mph 21.9 mph N/A   Overcast
6:15 AM 35.6 °F 26.2 °F 28.4 °F 75% 29.61 in 10.0 mi West 15.0 mph 21.9 mph N/A   Mostly Cloudy
6:35 AM 35.6 °F 27.5 °F 28.4 °F 75% 29.62 in 10.0 mi West 11.5 mph 20.7 mph N/A   Scattered Clouds
6:55 AM 35.6 °F 26.6 °F 28.4 °F 75% 29.62 in 10.0 mi West 13.8 mph - N/A   Mostly Cloudy
7:15 AM 35.6 °F 26.2 °F 28.4 °F 75% 29.62 in 10.0 mi West 15.0 mph - N/A   Mostly Cloudy
7:35 AM 35.6 °F 26.6 °F 28.4 °F 75% 29.62 in 10.0 mi West 13.8 mph - N/A   Mostly Cloudy
7:55 AM 35.6 °F 27.1 °F 28.4 °F 75% 29.63 in 10.0 mi WNW 12.7 mph - N/A   Overcast
8:35 AM 35.6 °F 27.1 °F 28.4 °F 75% 29.63 in 10.0 mi West 12.7 mph - N/A   Partly Cloudy
8:55 AM 39.2 °F 30.5 °F 28.4 °F 65% 29.64 in 10.0 mi West 16.1 mph 21.9 mph N/A   Clear
9:15 AM 39.2 °F 30.5 °F 30.2 °F 70% 29.64 in 10.0 mi West 16.1 mph 24.2 mph N/A   Mostly Cloudy
9:35 AM 41.0 °F 32.8 °F 30.2 °F 65% 29.64 in 10.0 mi West 16.1 mph 23.0 mph N/A   Scattered Clouds
9:55 AM 42.8 °F 34.8 °F 30.2 °F 61% 29.64 in 10.0 mi West 17.3 mph 24.2 mph N/A   Mostly Cloudy
10:15 AM 42.8 °F 34.5 °F 28.4 °F 57% 29.64 in 10.0 mi West 18.4 mph 31.1 mph N/A   Overcast
10:35 AM 41.0 °F 32.2 °F 26.6 °F 57% 29.65 in 10.0 mi West 18.4 mph 26.5 mph N/A   Overcast
11:15 AM 42.8 °F 34.0 °F 26.6 °F 53% 29.65 in 10.0 mi West 20.7 mph 26.5 mph N/A   Overcast
11:35 AM 42.8 °F 34.3 °F 26.6 °F 53% 29.64 in 10.0 mi West 19.6 mph 24.2 mph N/A   Overcast
11:55 AM 44.6 °F 36.9 °F 28.4 °F 53% 29.64 in 10.0 mi West 18.4 mph 27.6 mph N/A   Mostly Cloudy
12:15 PM 44.6 °F 36.1 °F 26.6 °F 49% 29.64 in 10.0 mi WSW 21.9 mph 27.6 mph N/A   Mostly Cloudy
12:35 PM 44.6 °F 35.9 °F 24.8 °F 46% 29.65 in 10.0 mi West 23.0 mph 26.5 mph N/A   Overcast
12:55 PM 37.4 °F 28.5 °F 26.6 °F 65% 29.69 in 10.0 mi NNW 15.0 mph 23.0 mph N/A   Overcast
1:15 PM 37.4 °F 27.8 °F 23.0 °F 56% 29.70 in 5.0 mi NNW 17.3 mph 24.2 mph N/A   Overcast
1:35 PM 37.4 °F 29.8 °F 21.2 °F 52% 29.71 in 10.0 mi North 11.5 mph - N/A   Mostly Cloudy
2:15 PM 37.4 °F - 23.0 °F 56% 29.74 in 10.0 mi Calm Calm - N/A   Overcast
2:35 PM 35.6 °F 30.7 °F 26.6 °F 70% 29.75 in 10.0 mi SSW 5.8 mph - N/A   Overcast
2:55 PM 35.6 °F 32.8 °F 24.8 °F 65% 29.77 in 10.0 mi South 3.5 mph - N/A   Overcast
3:15 PM 37.4 °F 32.1 °F 23.0 °F 56% 29.78 in 10.0 mi ENE 6.9 mph - N/A   Overcast
3:35 PM 37.4 °F 32.8 °F 19.4 °F 48% 29.78 in 10.0 mi North 5.8 mph - N/A   Overcast
3:55 PM 35.6 °F 28.6 °F 21.2 °F 56% 29.79 in 10.0 mi NNE 9.2 mph - N/A   Overcast
4:15 PM 35.6 °F 29.9 °F 17.6 °F 48% 29.80 in 10.0 mi NNE 6.9 mph - N/A   Overcast
4:35 PM 35.6 °F 29.9 °F 17.6 °F 48% 29.81 in 10.0 mi North 6.9 mph - N/A   Overcast
4:55 PM 33.8 °F - 19.4 °F 56% 29.83 in 10.0 mi Calm Calm - N/A   Overcast
5:15 PM 33.8 °F 30.8 °F 19.4 °F 56% 29.83 in 10.0 mi NNW 3.5 mph - N/A   Overcast
5:35 PM 35.6 °F 29.2 °F 15.8 °F 44% 29.84 in 10.0 mi WNW 8.1 mph - N/A   Overcast
5:55 PM 35.6 °F 28.6 °F 12.2 °F 38% 29.85 in 10.0 mi NW 9.2 mph - N/A   Overcast
6:15 PM 35.6 °F 28.0 °F 12.2 °F 38% 29.85 in 10.0 mi NW 10.4 mph - N/A   Overcast
6:35 PM 33.8 °F 28.6 °F 12.2 °F 41% 29.86 in 10.0 mi NNW 5.8 mph - N/A   Overcast
6:55 PM 33.8 °F 28.6 °F 14.0 °F 44% 29.87 in 10.0 mi NW 5.8 mph - N/A   Overcast
7:15 PM 33.8 °F 29.6 °F 15.8 °F 48% 29.87 in 10.0 mi NNW 4.6 mph - N/A   Overcast
7:35 PM 33.8 °F 29.6 °F 15.8 °F 48% 29.88 in 10.0 mi WNW 4.6 mph - N/A   Overcast
7:55 PM 33.8 °F 27.0 °F 14.0 °F 44% 29.89 in 10.0 mi West 8.1 mph - N/A   Overcast
8:15 PM 32.0 °F 24.8 °F 15.8 °F 51% 29.89 in 10.0 mi West 8.1 mph - N/A   Overcast
8:35 PM 32.0 °F 23.0 °F 15.8 °F 51% 29.90 in 10.0 mi West 11.5 mph - N/A   Overcast
9:15 PM 30.2 °F 25.4 °F 12.2 °F 47% 29.91 in 10.0 mi West 4.6 mph - N/A   Mostly Cloudy
9:35 PM 28.4 °F 23.3 °F 15.8 °F 59% 29.92 in 10.0 mi NW 4.6 mph - N/A   Partly Cloudy
9:55 PM 28.4 °F 22.2 °F 17.6 °F 64% 29.93 in 10.0 mi West 5.8 mph - N/A   Partly Cloudy
10:15 PM 28.4 °F 22.2 °F 17.6 °F 64% 29.93 in 10.0 mi WSW 5.8 mph - N/A   Mostly Cloudy
10:35 PM 28.4 °F 22.2 °F 15.8 °F 59% 29.94 in 10.0 mi WSW 5.8 mph - N/A   Overcast
10:55 PM 30.2 °F 25.4 °F 15.8 °F 55% 29.94 in 10.0 mi SW 4.6 mph - N/A   Overcast
11:15 PM 28.4 °F 22.2 °F 17.6 °F 64% 29.95 in 10.0 mi WSW 5.8 mph - N/A   Overcast
11:35 PM 30.2 °F 21.9 °F 15.8 °F 55% 29.95 in 10.0 mi WSW 9.2 mph - N/A   Overcast
11:55 PM 30.2 °F 22.6 °F 15.8 °F 55% 29.96 in 10.0 mi West 8.1 mph - N/A   Overcast